Preview of NWS' New Version of Forecast
This preview is not operational and should not be used for support decisions.

Regional Weather Roundup (RWR)

Issued by Gray - Portland, ME (GYX)

                            
000
ASUS41 KGYX 231405
RWRGYX
WEATHER ROUNDUP FOR MAINE AND NEW HAMPSHIRE
NATIONAL WEATHER SERVICE GRAY ME
1000 AM EDT THU MAY 23 2019

MEZ002-005-006-010-012-015-018-020-021-024-026-027-029-231500-
MAINE
  
CITY           SKY/WX    TMP DP  RH WIND       PRES   REMARKS
PORTLAND       FAIR      59  43  55 S10       30.17S                  
SANFORD        CLOUDY    60  46  59 SW7       30.16F                  
BAR HARBOR     CLOUDY    53  41  63 S5        30.19F                  
WISCASSET      FAIR      61  41  47 SW9       30.19F                  
ROCKLAND       PTSUNNY   57  45  64 VRB5      30.18F                  
FRYEBURG       CLOUDY    60  43  53 E3        30.14F                  
LEWISTONAUBURN FAIR      62  45  53 SE9       30.15F                  
AUGUSTA        FAIR      60  44  55 S9        30.17F                  
WATERVILLE     FAIR      59  43  55 S6        30.14F                  
BANGOR         PTSUNNY   56  41  57 SE6       30.17F                  
GREENVILLE       N/A     60  38  43 VRB7G16   30.11F                  
MILLINOCKET    FAIR      58  43  57 VRB3      30.15F                  
HOULTON        PTSUNNY   54  39  57 S3        30.14F                  
PRESQUE ISLE   FAIR      54  42  64 VRB3      30.16F                  
FRENCHVILLE    FAIR      55  37  50 S5        30.13F                  
CARIBOU        FAIR      53  43  68 VRB3      30.14F                  
$$

NHZ002-005-008-009-011-012-014-231500-
NEW HAMPSHIRE
  
CITY           SKY/WX    TMP DP  RH WIND       PRES   REMARKS
PORTSMOUTH     PTSUNNY   62  45  53 SW5       30.14F                  
ROCHESTER      CLOUDY    60  45  57 CALM      30.15F                  
NASHUA         FAIR      63  50  62 VRB5      30.15F                  
MANCHESTER     PTSUNNY   63  46  54 S12       30.13F                  
CONCORD        FAIR      60  46  59 CALM      30.14F                  
LACONIA        CLOUDY    56  45  66 NE7       30.15F                  
PLYMOUTH       CLOUDY    57  45  63 CALM      30.13F                  
BERLIN         NOT AVBL                                               
WHITEFIELD     CLOUDY    63  40  42 VRB5      30.08F                  
JAFFREY        FAIR      61  47  59 S17G24    30.14F                  
KEENE          FAIR      63  49  60 SW12      30.13F                  
LEBANON        PTSUNNY   62  46  55 S5        30.09F                  
MT WASHINGTON  CLOUDY    39  32  75 W25         N/A                   
$$

VTZ005-007-008-231500-
VERMONT
  
CITY           SKY/WX    TMP DP  RH WIND       PRES   REMARKS
ST JOHNSBURY     N/A     58  41  53 MISG      30.07F                  
MONTPELIER     FAIR      60  44  55 SE8       30.11F                  
BURLINGTON     PTSUNNY   67  39  35 S16G25    30.04F                  
$$

MAZ007-012-024-CTZ003-RIZ002-NYZ038-NYZ072-231500-
SOUTHERN NEW ENGLAND AND NY
  
CITY           SKY/WX    TMP DP  RH WIND       PRES   REMARKS
BOSTON         PTSUNNY   66  49  54 S15       30.17F                  
WORCESTER      CLOUDY    56  48  74 SW15      30.17F                  
NANTUCKET      CLOUDY    54  44  69 S13       30.27S                  
PROVIDENCE     CLOUDY    57  49  74 SW10      30.21F                  
HARTFORD       CLOUDY    63  52  67 S9        30.16F                  
ALBANY         FAIR      66  51  58 S14       30.09F                  
NEW YORK CITY  CLOUDY    60  52  74 S8        30.19F                  
$$

ANZ081-ANZ082-ANZ150-NHZ014-MEZ023>029-231500-
COASTAL MARINE OBSERVATIONS
  
STATION/POSITION TIME  TEMP    WIND        PRES    WAVE
                       AIR SEA DIR/SP/G            HT/PER
                 (UTC) (F)     (DEG/KT/KT) (MB)    (FT/S)
ISLE OF SHOALS   1300   53     180/ 17/ 18 1021.6F
JEFFREYS LEDGE   1308      48                N/A     1/ 3
GEORGES BANK BUO 1350   46 44  320/  2/  2 1026.3S   3/ 9
$$

.............KEY..............
   WCI - WIND CHILL
   TC  - TEMPERATURE IN CELSIUS
   VSB - VISIBILITY IN MILES
   HX  - HEAT INDEX
   FAIR- INDICATES FEW OR NO CLOUDS BELOW 12,000 FT, WITH NO 
         SIGNIFICANT WEATHER AND/OR OBSTRUCTIONS TO VISIBILITY.